Location: Chiroubles
(46.1812°N, 4.6660°E)
Time: 11:09:49
(UTC+00:00)

SR - Pass Details

Date: 27 November 2020
Orbit: 575 x 880 km, 66.7° (Epoch: 20 January)

Event Time Altitude Azimuth Distance (km) Brightness Sun altitude
Exits shadow 03:27:27 13° 152° (SSE) 2,261 ? -36.0°
Drops below altitude 10° 03:27:58 10° 152° (SSE) 2,457 ? -35.9°
Sets 03:30:30 0° 151° (SSE) 3,418 ? -35.5°
